Lid_Strength_Index
4 5 6 6 7 7 7 7 7 7 6 7 6 6 6 6 6 5 5 5 4 4 4 4 4 4 7 11 10 6 1 3 5 6 8 9 10 11 12 12 12 13 12 10 9 10 10
4 5 6 7 7 7 7 7 7 7 7 7 6 6 6 6 5 5 5 5 4 4 3 4 4 4 9 16 8 6 7 7 7 8 9 9 10 9 11 12 13 12 11 10 10 10 10
5 5 6 7 7 7 7 7 7 6 6 6 6 6 6 6 5 5 5 5 4 3 4 4 4 6 10 13 9 8 8 8 8 8 10 8 8 10 10 12 10 11 13 12 12 11 11
5 5 6 7 7 6 7 7 7 7 7 7 7 6 6 6 6 6 5 5 4 3 4 3 4 9 13 7 10 8 8 8 7 7 7 7 7 9 11 10 12 14 15 16 12 11 11
5 6 6 7 7 7 7 7 7 7 7 7 7 7 6 6 6 6 5 5 5 4 3 3 8 10 14 7 10 9 9 9 8 8 7 6 8 12 11 14 16 15 18 17 14 11 11
5 6 7 7 7 7 8 7 7 7 7 7 7 7 6 6 6 6 6 5 5 5 4 4 6 14 10 13 10 9 9 8 9 9 10 9 12 14 14 16 18 17 17 16 16 13 12
5 6 7 7 7 7 7 7 7 7 7 7 7 7 6 6 6 6 9 10 12 13 11 13 12 12 11 9 9 10 9 9 9 10 14 12 15 17 16 14 14 15 15 16 14 12 14
6 6 6 6 7 7 7 7 7 7 7 7 7 7 6 7 6 7 11 13 14 13 15 11 11 10 9 9 12 11 8 12 12 15 13 14 15 12 12 13 14 14 15 16 14 13 14
6 6 6 6 7 7 7 7 8 7 7 7 7 7 6 7 7 11 13 13 11 11 16 13 10 10 10 9 12 12 10 12 14 15 14 15 14 11 12 13 14 14 15 15 15 13 14
5 5 6 6 7 7 8 8 8 8 8 8 7 7 7 7 12 13 14 12 10 10 20 17 13 11 10 10 13 9 9 11 14 15 15 15 12 13 13 14 13 15 13 13 14 16 19
5 5 6 6 7 7 7 8 8 8 8 7 6 6 7 9 14 15 13 11 10 14 27 15 13 9 11 13 12 12 10 11 14 15 15 15 15 14 14 14 12 14 13 13 14 16 17
5 6 6 6 7 7 7 8 8 8 7 6 6 6 7 12 14 13 12 11 13 20 26 17 14 14 14 13 13 12 12 11 12 14 15 14 13 14 13 13 12 12 13 15 15 16 27
5 5 6 7 6 7 8 8 8 7 7 7 6 6 9 12 16 13 10 14 21 26 19 21 17 15 15 15 14 14 15 16 17 20 19 16 15 14 13 14 13 13 16 26 27 28 25
4 5 6 6 6 7 7 7 7 7 7 7 6 7 10 11 12 10 14 18 27 27 25 16 16 16 17 16 16 16 16 18 17 17 19 21 21 15 13 14 15 15 16 24 30 28 24
4 4 5 5 5 6 6 7 7 6 7 7 8 13 13 12 11 11 16 26 23 23 19 17 17 22 22 16 17 17 18 18 16 15 18 20 19 14 14 14 13 15 19 15 24 26 25
3 3 4 4 5 6 6 6 6 6 6 6 12 14 14 12 11 14 19 20 22 16 16 16 21 22 27 24 19 18 18 16 16 14 14 16 20 15 14 14 14 14 13 19 21 26 26
3 4 4 4 4 5 5 5 5 5 6 7 13 16 13 11 12 16 23 25 18 15 15 17 20 24 20 23 19 20 18 16 16 16 14 15 16 17 16 17 17 17 18 17 16 19 26
3 2 2 2 3 3 4 4 4 5 6 9 15 20 13 12 20 28 26 19 14 17 16 16 15 17 19 19 22 19 18 16 16 15 17 15 17 22 19 17 17 16 16 16 21 23 20
1 1 1 1 2 2 3 3 4 4 5 12 16 16 13 14 24 26 22 17 16 17 17 16 16 15 16 21 22 20 18 15 15 15 17 16 23 29 23 20 18 18 16 16 21 20 22
1 1 1 1 1 2 2 2 3 3 4 11 17 21 19 17 17 19 23 20 19 15 16 15 15 15 18 21 19 24 18 15 14 15 12 14 22 25 25 22 20 21 19 18 22 26 24
-0 1 1 1 1 1 1 1 2 3 4 11 17 20 20 22 20 18 17 18 19 20 16 15 17 16 18 25 24 24 20 17 16 14 15 18 26 25 23 21 20 20 20 19 23 24 24
2 0 1 1 1 1 1 2 2 2 3 14 17 19 20 24 18 17 17 21 19 18 17 17 20 16 18 22 19 24 23 21 19 18 18 18 25 21 27 19 19 21 19 19 19 19 20
1 -0 0 1 1 1 1 1 2 3 5 14 15 14 16 18 19 20 19 18 17 16 15 15 17 18 17 17 18 16 16 15 16 19 21 21 23 28 31 21 22 26 21 19 20 20 20
1 2 -0 0 1 2 2 1 2 2 5 12 13 16 19 23 19 18 15 15 16 15 18 15 15 17 14 13 13 14 16 15 17 16 15 22 22 24 30 27 33 20 19 18 18 17 17
2 1 1 -0 0 1 1 1 2 2 5 11 12 15 20 26 16 16 16 15 15 15 16 15 14 13 12 13 19 23 24 22 22 18 17 16 17 23 27 33 23 19 19 19 19 19 16
2 1 1 1 1 1 2 1 2 2 3 9 11 12 17 19 19 13 16 16 21 22 20 16 13 12 13 17 22 25 26 28 26 25 19 16 14 18 28 29 32 21 18 15 15 21 14
3 1 0 0 1 2 2 1 2 2 3 8 10 10 16 20 18 14 19 17 15 18 21 20 16 16 13 21 23 28 26 24 26 28 28 20 21 20 20 22 23 17 14 13 23 19 13
2 1 0 0 1 1 1 1 2 2 3 7 10 10 13 19 17 13 12 16 16 16 19 19 17 18 19 21 23 25 29 24 26 22 22 23 25 27 27 26 25 14 15 17 14 12 11
3 2 2 -0 1 1 1 2 2 2 3 6 11 8 9 14 15 11 11 10 11 11 16 21 17 18 15 21 23 24 27 28 26 27 17 23 20 21 21 21 14 14 15 14 16 13 11